| time (UTC) | temp F | wind direction | speed MPH | gust MPH | rain 1hr in | rain 24hr in | rain mn in | humidity % | barometer mb |
| 20260906073339 | 73 | 344 | 1.0 | 4.0 | 0.00 | 0.00 | 0.00 | 93 | 1006.0 |
| 20260906072904 | 73 | 343 | 2.0 | 4.0 | 0.00 | 0.00 | 0.00 | 93 | 1006.1 |
| 20260906072339 | 73 | 355 | 2.0 | 4.0 | 0.00 | 0.00 | 0.00 | 93 | 1006.0 |
| 20260906071828 | 73 | 5 | 2.0 | 6.0 | 0.00 | 0.00 | 0.00 | 92 | 1006.1 |
| 20260906071332 | 73 | 329 | 2.0 | 6.0 | 0.00 | 0.00 | 0.00 | 92 | 1006.1 |
| 20260906070856 | 73 | 5 | 0.0 | 3.0 | 0.00 | 0.00 | 0.00 | 92 | 1006.0 |
| 20260906070359 | 72 | 355 | 0.0 | 3.0 | 0.00 | 0.00 | 0.00 | 92 | 1006.0 |
| 20260906065842 | 72 | 355 | 1.0 | 2.0 | 0.00 | 0.00 | 0.00 | 92 | 1006.0 |
| 20260906065338 | 72 | 5 | 0.0 | 2.0 | 0.00 | 0.00 | 0.00 | 92 | 1006.1 |
| 20260906064903 | 72 | 13 | 0.0 | 2.0 | 0.00 | 0.00 | 0.00 | 91 | 1006.0 |
| 20260906064346 | 73 | 17 | 0.0 | 1.0 | 0.00 | 0.00 | 0.00 | 91 | 1006.0 |
| 20260906063850 | 73 | 17 | 0.0 | 2.0 | 0.00 | 0.00 | 0.00 | 91 | 1006.1 |
| 20260906063353 | 73 | 17 | 0.0 | 2.0 | 0.00 | 0.00 | 0.00 | 91 | 1006.1 |
| 20260906062835 | 73 | 5 | 0.0 | 1.0 | 0.00 | 0.00 | 0.00 | 91 | 1006.1 |
| 20260906062351 | 73 | 5 | 0.0 | 2.0 | 0.00 | 0.00 | 0.00 | 91 | 1006.1 |
| 20260906061834 | 73 | 5 | 0.0 | 2.0 | 0.00 | 0.00 | 0.00 | 91 | 1006.2 |
| 20260906061359 | 73 | 360 | 1.0 | 2.0 | 0.00 | 0.00 | 0.00 | 90 | 1006.2 |
| 20260906060901 | 73 | 360 | 0.0 | 1.0 | 0.00 | 0.00 | 0.00 | 90 | 1006.2 |
| 20260906060404 | 73 | 360 | 0.0 | 1.0 | 0.00 | 0.00 | 0.00 | 90 | 1006.2 |
| 20260906055848 | 73 | 360 | 0.0 | 1.0 | 0.00 | 0.00 | 0.00 | 90 | 1006.2 |
| 20260906055403 | 73 | 360 | 0.0 | 1.0 | 0.00 | 0.00 | 0.00 | 89 | 1006.2 |
| 20260906054825 | 73 | 360 | 0.0 | 1.0 | 0.00 | 0.00 | 0.00 | 89 | 1006.2 |
| 20260906054330 | 73 | 360 | 0.0 | 2.0 | 0.00 | 0.00 | 0.00 | 89 | 1006.1 |
| 20260906053834 | 73 | 338 | 0.0 | 2.0 | 0.00 | 0.00 | 0.00 | 89 | 1006.2 |
| 20260906053337 | 74 | 355 | 0.0 | 1.0 | 0.00 | 0.00 | 0.00 | 89 | 1006.0 |
| 20260906052825 | 74 | 355 | 0.0 | 2.0 | 0.00 | 0.00 | 0.00 | 88 | 1006.1 |
| 20260906052342 | 74 | 355 | 0.0 | 3.0 | 0.00 | 0.00 | 0.00 | 88 | 1006.1 |
| 20260906051845 | 74 | 5 | 1.0 | 3.0 | 0.00 | 0.00 | 0.00 | 88 | 1006.1 |
| 20260906051348 | 74 | 331 | 0.0 | 2.0 | 0.00 | 0.00 | 0.00 | 88 | 1006.1 |
| 20260906050831 | 74 | 309 | 0.0 | 3.0 | 0.00 | 0.00 | 0.00 | 88 | 1006.0 |
| 20260906050335 | 74 | 355 | 1.0 | 3.0 | 0.00 | 0.00 | 0.00 | 88 | 1005.9 |
| 20260906045859 | 74 | 360 | 1.0 | 3.0 | 0.00 | 0.00 | 0.00 | 88 | 1005.9 |
| 20260906045355 | 75 | 334 | 2.0 | 3.0 | 0.00 | 0.00 | 0.00 | 87 | 1005.8 |
| 20260906044858 | 75 | 5 | 0.0 | 3.0 | 0.00 | 0.00 | 0.00 | 88 | 1005.8 |
| 20260906044401 | 75 | 323 | 1.0 | 3.0 | 0.00 | 0.00 | 0.00 | 87 | 1005.7 |
| 20260906043905 | 75 | 360 | 0.0 | 2.0 | 0.00 | 0.00 | 0.00 | 87 | 1005.8 |
| 20260906043347 | 75 | 306 | 0.0 | 2.0 | 0.00 | 0.00 | 0.00 | 87 | 1005.7 |
| 20260906042830 | 75 | 355 | 0.0 | 3.0 | 0.00 | 0.00 | 0.00 | 86 | 1005.6 |
| 20260906042325 | 76 | 360 | 0.0 | 2.0 | 0.00 | 0.00 | 0.00 | 86 | 1005.5 |
| 20260906041829 | 76 | 355 | 0.0 | 1.0 | 0.00 | 0.00 | 0.00 | 86 | 1005.4 |
| 20260906041333 | 76 | 336 | 0.0 | 3.0 | 0.00 | 0.00 | 0.00 | 86 | 1005.2 |
| 20260906040837 | 76 | 355 | 0.0 | 3.0 | 0.00 | 0.00 | 0.00 | 85 | 1005.1 |
| 20260906040342 | 76 | 13 | 0.0 | 2.0 | 0.00 | 0.00 | 0.00 | 84 | 1005.1 |
| 20260906035830 | 76 | 350 | 0.0 | 1.0 | 0.00 | 0.00 | 0.00 | 84 | 1005.0 |
| 20260906035325 | 76 | 17 | 0.0 | 2.0 | 0.00 | 0.00 | 0.00 | 83 | 1005.2 |
| 20260906034829 | 76 | 323 | 0.0 | 2.0 | 0.00 | 0.00 | 0.00 | 83 | 1005.2 |
| 20260906034353 | 76 | 17 | 0.0 | 2.0 | 0.00 | 0.00 | 0.00 | 83 | 1005.2 |
| 20260906033835 | 76 | 355 | 0.0 | 1.0 | 0.00 | 0.00 | 0.00 | 82 | 1005.2 |
| 20260906033340 | 77 | 53 | 0.0 | 2.0 | 0.00 | 0.00 | 0.00 | 82 | 1005.2 |
| 20260906032904 | 77 | 53 | 0.0 | 2.0 | 0.00 | 0.00 | 0.00 | 81 | 1005.2 |
| 20260906032339 | 77 | 28 | 0.0 | 2.0 | 0.00 | 0.00 | 0.00 | 81 | 1005.2 |
| 20260906031843 | 77 | 5 | 0.0 | 2.0 | 0.00 | 0.00 | 0.00 | 81 | 1005.3 |
| 20260906031348 | 77 | 63 | 0.0 | 3.0 | 0.00 | 0.00 | 0.00 | 80 | 1005.3 |
| 20260906030831 | 77 | 5 | 0.0 | 3.0 | 0.00 | 0.00 | 0.00 | 80 | 1005.4 |
| 20260906030356 | 78 | 5 | 0.0 | 3.0 | 0.00 | 0.00 | 0.00 | 80 | 1005.4 |
| 20260906025858 | 78 | 360 | 0.0 | 2.0 | 0.00 | 0.00 | 0.00 | 79 | 1005.4 |
| 20260906025334 | 78 | 10 | 0.0 | 4.0 | 0.00 | 0.00 | 0.00 | 79 | 1005.3 |
| 20260906024837 | 78 | 19 | 1.0 | 4.0 | 0.00 | 0.00 | 0.00 | 79 | 1005.3 |
| 20260906024341 | 78 | 342 | 0.0 | 2.0 | 0.00 | 0.00 | 0.00 | 79 | 1005.4 |
| 20260906023830 | 79 | 35 | 0.0 | 4.0 | 0.00 | 0.00 | 0.00 | 79 | 1005.3 |
| 20260906023354 | 79 | 316 | 1.0 | 4.0 | 0.00 | 0.00 | 0.00 | 79 | 1005.5 |
| 20260906022837 | 79 | 14 | 0.0 | 2.0 | 0.00 | 0.00 | 0.00 | 78 | 1005.4 |
| 20260906022334 | 79 | 26 | 0.0 | 1.0 | 0.00 | 0.00 | 0.00 | 79 | 1005.4 |
| 20260906021858 | 80 | 5 | 0.0 | 1.0 | 0.00 | 0.00 | 0.00 | 78 | 1005.4 |
| 20260906021341 | 80 | 5 | 0.0 | 1.0 | 0.00 | 0.00 | 0.00 | 78 | 1005.2 |
| 20260906020824 | 80 | 58 | 0.0 | 2.0 | 0.00 | 0.00 | 0.00 | 78 | 1005.2 |
| 20260906020349 | 81 | 355 | 0.0 | 2.0 | 0.00 | 0.00 | 0.00 | 78 | 1005.2 |
| 20260906015852 | 81 | 28 | 0.0 | 0.0 | 0.00 | 0.00 | 0.00 | 78 | 1005.2 |
| 20260906015326 | 81 | 28 | 0.0 | 0.0 | 0.00 | 0.00 | 0.00 | 77 | 1005.1 |
| 20260906014848 | 81 | 28 | 0.0 | 1.0 | 0.00 | 0.00 | 0.00 | 77 | 1005.1 |
| 20260906014351 | 82 | 39 | 0.0 | 2.0 | 0.00 | 0.00 | 0.00 | 77 | 1004.9 |
| 20260906013833 | 82 | 9 | 0.0 | 2.0 | 0.00 | 0.00 | 0.00 | 77 | 1004.8 |
| 20260906013358 | 82 | 62 | 0.0 | 1.0 | 0.00 | 0.00 | 0.00 | 76 | 1004.6 |
| 20260906012841 | 83 | 346 | 0.0 | 4.0 | 0.00 | 0.00 | 0.00 | 76 | 1004.5 |
| 20260906012338 | 83 | 84 | 2.0 | 4.0 | 0.00 | 0.00 | 0.00 | 76 | 1004.6 |
| 20260906011843 | 84 | 57 | 0.0 | 1.0 | 0.00 | 0.00 | 0.00 | 76 | 1004.5 |
| 20260906011326 | 84 | 42 | 0.0 | 4.0 | 0.00 | 0.00 | 0.00 | 76 | 1004.3 |
| 20260906010850 | 85 | 5 | 0.0 | 4.0 | 0.00 | 0.00 | 0.00 | 75 | 1004.2 |
| 20260906010337 | 85 | 355 | 0.0 | 8.0 | 0.00 | 0.00 | 0.00 | 75 | 1004.1 |
| 20260906005901 | 85 | 9 | 1.0 | 8.0 | 0.00 | 0.00 | 0.00 | 75 | 1004.1 |
| 20260906005356 | 86 | 346 | 3.0 | 8.0 | 0.00 | 0.00 | 0.00 | 74 | 1004.0 |
| 20260906004859 | 86 | 319 | 0.0 | 2.0 | 0.00 | 0.00 | 0.00 | 73 | 1003.8 |
| 20260906004403 | 86 | 322 | 0.0 | 2.0 | 0.00 | 0.00 | 0.00 | 72 | 1003.8 |
| 20260906003826 | 87 | 342 | 0.0 | 1.0 | 0.00 | 0.00 | 0.00 | 72 | 1003.7 |
| 20260906003350 | 87 | 355 | 0.0 | 3.0 | 0.00 | 0.00 | 0.00 | 72 | 1003.6 |
| 20260906002832 | 87 | 306 | 1.0 | 3.0 | 0.00 | 0.00 | 0.00 | 71 | 1003.6 |
| 20260906002329 | 87 | 336 | 0.0 | 1.0 | 0.00 | 0.00 | 0.00 | 70 | 1003.6 |
| 20260906001833 | 87 | 5 | 0.0 | 0.0 | 0.00 | 0.00 | 0.00 | 70 | 1003.7 |
| 20260906001337 | 88 | 302 | 0.0 | 1.0 | 0.00 | 0.00 | 0.00 | 70 | 1003.7 |
| 20260906000841 | 88 | 302 | 0.0 | 3.0 | 0.00 | 0.00 | 0.00 | 70 | 1003.7 |
| 20260906000404 | 88 | 302 | 0.0 | 3.0 | 0.00 | 0.00 | 0.00 | 69 | 1003.7 |
| 20260905235826 | 88 | 309 | 0.0 | 2.0 | 0.00 | 0.00 | 0.00 | 69 | 1003.7 |
| 20260905235324 | 88 | 333 | 0.0 | 2.0 | 0.00 | 0.00 | 0.00 | 69 | 1003.7 |
| 20260905234848 | 88 | 281 | 0.0 | 0.0 | 0.00 | 0.00 | 0.00 | 70 | 1003.7 |
| 20260905234352 | 88 | 281 | 0.0 | 0.0 | 0.00 | 0.00 | 0.00 | 70 | 1003.7 |
| 20260905233835 | 88 | 281 | 0.0 | 0.0 | 0.00 | 0.00 | 0.00 | 70 | 1003.8 |
| 20260905233339 | 89 | 281 | 0.0 | 0.0 | 0.00 | 0.00 | 0.00 | 70 | 1003.8 |
| 20260905232847 | 89 | 281 | 0.0 | 0.0 | 0.00 | 0.00 | 0.00 | 71 | 1003.6 |
| 20260905232342 | 89 | 281 | 0.0 | 0.0 | 0.00 | 0.00 | 0.00 | 71 | 1003.8 |
| 20260905231826 | 89 | 281 | 0.0 | 0.0 | 0.00 | 0.00 | 0.00 | 69 | 1003.9 |
| 20260905231329 | 89 | 281 | 0.0 | 0.0 | 0.00 | 0.00 | 0.00 | 68 | 1004.0 |
| 20260905230834 | 89 | 281 | 0.0 | 0.0 | 0.00 | 0.00 | 0.00 | 68 | 1004.1 |
| 20260905230358 | 89 | 281 | 0.0 | 0.0 | 0.00 | 0.00 | 0.00 | 68 | 1004.0 |
| 20260905225901 | 89 | 281 | 0.0 | 0.0 | 0.00 | 0.00 | 0.00 | 68 | 1004.0 |
| 20260905225335 | 89 | 281 | 0.0 | 0.0 | 0.00 | 0.01 | 0.00 | 68 | 1003.9 |
| 20260905224840 | 89 | 281 | 0.0 | 0.0 | 0.00 | 0.01 | 0.00 | 67 | 1003.7 |
| 20260905224344 | 90 | 281 | 0.0 | 0.0 | 0.00 | 0.01 | 0.00 | 67 | 1003.6 |
| 20260905223827 | 90 | 281 | 0.0 | 0.0 | 0.00 | 0.01 | 0.00 | 66 | 1003.5 |
| 20260905223352 | 90 | 281 | 0.0 | 0.0 | 0.00 | 0.01 | 0.00 | 66 | 1003.4 |
| 20260905222835 | 90 | 281 | 0.0 | 0.0 | 0.00 | 0.01 | 0.00 | 67 | 1003.6 |
| 20260905222332 | 90 | 281 | 0.0 | 0.0 | 0.00 | 0.01 | 0.00 | 66 | 1003.5 |
| 20260905221835 | 90 | 281 | 0.0 | 0.0 | 0.00 | 0.01 | 0.00 | 65 | 1003.3 |
| 20260905221400 | 90 | 281 | 0.0 | 0.0 | 0.00 | 0.01 | 0.00 | 65 | 1003.3 |
| 20260905220827 | 91 | 281 | 0.0 | 1.0 | 0.00 | 0.01 | 0.00 | 64 | 1003.4 |
| 20260905220352 | 91 | 281 | 0.0 | 1.0 | 0.00 | 0.01 | 0.00 | 64 | 1003.5 |
| 20260905215854 | 91 | 24 | 0.0 | 1.0 | 0.00 | 0.01 | 0.00 | 63 | 1003.5 |
| 20260905215350 | 91 | 24 | 0.0 | 2.0 | 0.00 | 0.01 | 0.00 | 63 | 1003.7 |
| 20260905214852 | 92 | 343 | 0.0 | 2.0 | 0.00 | 0.01 | 0.00 | 62 | 1003.7 |
| 20260905214356 | 92 | 304 | 0.0 | 5.0 | 0.00 | 0.01 | 0.00 | 62 | 1003.7 |
| 20260905213839 | 92 | 319 | 0.0 | 5.0 | 0.00 | 0.01 | 0.00 | 61 | 1003.7 |
| 20260905213404 | 92 | 296 | 1.0 | 4.0 | 0.00 | 0.01 | 0.00 | 62 | 1003.5 |
| 20260905212847 | 92 | 15 | 1.0 | 4.0 | 0.00 | 0.01 | 0.00 | 61 | 1003.6 |
| 20260905212402 | 93 | 342 | 0.0 | 4.0 | 0.00 | 0.01 | 0.00 | 60 | 1003.6 |
| 20260905211824 | 93 | 158 | 0.0 | 2.0 | 0.00 | 0.01 | 0.00 | 61 | 1003.6 |
| 20260905211328 | 93 | 150 | 1.0 | 3.0 | 0.00 | 0.01 | 0.00 | 61 | 1003.6 |
| 20260905210853 | 93 | 96 | 0.0 | 6.0 | 0.00 | 0.01 | 0.00 | 60 | 1003.7 |
| 20260905210356 | 93 | 344 | 2.0 | 4.0 | 0.00 | 0.01 | 0.00 | 59 | 1003.7 |
| 20260905205839 | 93 | 314 | 1.0 | 5.0 | 0.00 | 0.01 | 0.00 | 61 | 1003.8 |
| 20260905205355 | 93 | 191 | 1.0 | 7.0 | 0.00 | 0.01 | 0.00 | 61 | 1004.0 |
| 20260905204839 | 93 | 5 | 2.0 | 8.0 | 0.00 | 0.01 | 0.00 | 59 | 1004.0 |
| 20260905204403 | 93 | 45 | 4.0 | 8.0 | 0.00 | 0.01 | 0.00 | 59 | 1004.1 |
| 20260905203826 | 93 | 348 | 1.0 | 4.0 | 0.00 | 0.01 | 0.00 | 60 | 1004.1 |
| 20260905203350 | 93 | 318 | 1.0 | 5.0 | 0.00 | 0.01 | 0.00 | 59 | 1004.1 |
| 20260905202833 | 93 | 333 | 0.0 | 5.0 | 0.00 | 0.01 | 0.00 | 59 | 1004.3 |
| 20260905202329 | 93 | 122 | 1.0 | 5.0 | 0.00 | 0.01 | 0.00 | 61 | 1004.3 |
| 20260905201833 | 93 | 222 | 1.0 | 2.0 | 0.00 | 0.01 | 0.00 | 58 | 1004.2 |
| 20260905201357 | 93 | 175 | 0.0 | 2.0 | 0.00 | 0.01 | 0.00 | 58 | 1004.4 |
| 20260905200900 | 93 | 152 | 0.0 | 2.0 | 0.00 | 0.01 | 0.00 | 59 | 1004.3 |
| 20260905200327 | 93 | 200 | 0.0 | 2.0 | 0.00 | 0.01 | 0.00 | 59 | 1004.4 |
| 20260905195851 | 93 | 277 | 0.0 | 6.0 | 0.00 | 0.01 | 0.00 | 58 | 1004.5 |
| 20260905195328 | 93 | 319 | 0.0 | 6.0 | 0.00 | 0.01 | 0.00 | 58 | 1004.4 |
| 20260905194851 | 93 | 336 | 2.0 | 5.0 | 0.00 | 0.01 | 0.00 | 58 | 1004.6 |
| 20260905194355 | 93 | 221 | 0.0 | 5.0 | 0.00 | 0.01 | 0.00 | 58 | 1004.6 |
| 20260905193838 | 93 | 51 | 1.0 | 3.0 | 0.00 | 0.01 | 0.00 | 58 | 1004.6 |
| 20260905193401 | 93 | 26 | 1.0 | 3.0 | 0.00 | 0.01 | 0.00 | 55 | 1004.7 |
| 20260905192825 | 93 | 36 | 1.0 | 5.0 | 0.00 | 0.01 | 0.00 | 55 | 1004.7 |
| 20260905192403 | 93 | 236 | 1.0 | 5.0 | 0.00 | 0.01 | 0.00 | 57 | 1004.9 |
| 20260905191843 | 93 | 355 | 1.0 | 4.0 | 0.00 | 0.01 | 0.00 | 55 | 1004.8 |
| 20260905191326 | 93 | 134 | 0.0 | 3.0 | 0.00 | 0.01 | 0.00 | 56 | 1004.8 |
| 20260905190830 | 93 | 195 | 1.0 | 4.0 | 0.00 | 0.01 | 0.00 | 57 | 1004.9 |
| 20260905190354 | 93 | 170 | 1.0 | 4.0 | 0.00 | 0.01 | 0.00 | 58 | 1004.9 |
| 20260905185836 | 93 | 194 | 0.0 | 4.0 | 0.00 | 0.01 | 0.00 | 57 | 1004.9 |
| 20260905185332 | 93 | 165 | 0.0 | 9.0 | 0.00 | 0.01 | 0.00 | 56 | 1005.0 |
| 20260905184856 | 93 | 245 | 4.0 | 9.0 | 0.00 | 0.01 | 0.00 | 60 | 1005.1 |
| 20260905184339 | 93 | 219 | 0.0 | 3.0 | 0.00 | 0.01 | 0.00 | 56 | 1005.2 |
| 20260905183826 | 93 | 234 | 1.0 | 3.0 | 0.00 | 0.01 | 0.00 | 57 | 1005.3 |
| 20260905183351 | 93 | 186 | 2.0 | 3.0 | 0.00 | 0.01 | 0.00 | 57 | 1005.3 |
| 20260905182834 | 92 | 197 | 1.0 | 4.0 | 0.00 | 0.01 | 0.00 | 57 | 1005.5 |
| 20260905182350 | 92 | 186 | 1.0 | 6.0 | 0.00 | 0.01 | 0.00 | 57 | 1005.5 |
| 20260905181833 | 92 | 182 | 1.0 | 5.0 | 0.00 | 0.01 | 0.00 | 56 | 1005.5 |
| 20260905181359 | 92 | 179 | 3.0 | 11.0 | 0.00 | 0.01 | 0.00 | 58 | 1005.5 |
| 20260905180842 | 92 | 192 | 5.0 | 11.0 | 0.00 | 0.01 | 0.00 | 57 | 1005.4 |
| 20260905180345 | 92 | 217 | 2.0 | 4.0 | 0.00 | 0.01 | 0.00 | 56 | 1005.5 |
| 20260905175829 | 92 | 204 | 1.0 | 7.0 | 0.00 | 0.01 | 0.00 | 57 | 1005.5 |
| 20260905175326 | 91 | 211 | 2.0 | 7.0 | 0.00 | 0.01 | 0.00 | 57 | 1005.5 |
| 20260905174850 | 92 | 169 | 3.0 | 5.0 | 0.00 | 0.01 | 0.00 | 57 | 1005.6 |
| 20260905174352 | 92 | 193 | 2.0 | 4.0 | 0.00 | 0.01 | 0.00 | 58 | 1005.7 |
| 20260905173856 | 91 | 194 | 2.0 | 6.0 | 0.00 | 0.01 | 0.00 | 57 | 1005.9 |
| 20260905173400 | 91 | 195 | 3.0 | 8.0 | 0.00 | 0.01 | 0.00 | 58 | 1005.9 |
| 20260905172842 | 91 | 197 | 4.0 | 9.0 | 0.00 | 0.01 | 0.00 | 60 | 1006.0 |
| 20260905172339 | 91 | 144 | 5.0 | 9.0 | 0.00 | 0.01 | 0.00 | 57 | 1006.0 |
| 20260905171902 | 91 | 198 | 2.0 | 8.0 | 0.00 | 0.01 | 0.00 | 58 | 1006.2 |
| 20260905171345 | 91 | 180 | 3.0 | 8.0 | 0.00 | 0.01 | 0.00 | 59 | 1006.2 |
| 20260905170829 | 91 | 208 | 2.0 | 4.0 | 0.00 | 0.01 | 0.00 | 59 | 1006.3 |
| 20260905170334 | 90 | 205 | 2.0 | 7.0 | 0.00 | 0.01 | 0.00 | 60 | 1006.3 |
| 20260905165838 | 90 | 138 | 3.0 | 7.0 | 0.00 | 0.01 | 0.00 | 58 | 1006.5 |
| 20260905165355 | 90 | 188 | 3.0 | 4.0 | 0.00 | 0.01 | 0.00 | 58 | 1006.5 |
| 20260905164859 | 90 | 209 | 2.0 | 4.0 | 0.00 | 0.01 | 0.00 | 60 | 1006.6 |
| 20260905164346 | 89 | 205 | 1.0 | 4.0 | 0.00 | 0.01 | 0.00 | 61 | 1006.6 |
| 20260905163849 | 89 | 227 | 1.0 | 3.0 | 0.00 | 0.01 | 0.00 | 60 | 1006.7 |
| 20260905163352 | 88 | 199 | 1.0 | 3.0 | 0.00 | 0.01 | 0.00 | 60 | 1006.7 |
| 20260905162835 | 88 | 216 | 2.0 | 3.0 | 0.00 | 0.01 | 0.00 | 61 | 1006.7 |
| 20260905162330 | 88 | 196 | 2.0 | 3.0 | 0.00 | 0.01 | 0.00 | 59 | 1006.5 |
| 20260905161835 | 87 | 200 | 2.0 | 5.0 | 0.00 | 0.01 | 0.00 | 61 | 1006.6 |
| 20260905161339 | 87 | 234 | 2.0 | 5.0 | 0.00 | 0.01 | 0.00 | 61 | 1006.5 |
| 20260905160902 | 87 | 213 | 3.0 | 7.0 | 0.00 | 0.01 | 0.00 | 62 | 1006.7 |
| 20260905160325 | 87 | 149 | 4.0 | 7.0 | 0.00 | 0.01 | 0.00 | 61 | 1006.6 |
| 20260905155829 | 87 | 204 | 3.0 | 6.0 | 0.00 | 0.01 | 0.00 | 62 | 1006.8 |
| 20260905155347 | 87 | 199 | 3.0 | 7.0 | 0.00 | 0.01 | 0.00 | 62 | 1006.9 |
| 20260905154850 | 86 | 211 | 2.0 | 7.0 | 0.00 | 0.01 | 0.00 | 63 | 1006.9 |
| 20260905154354 | 86 | 202 | 1.0 | 3.0 | 0.00 | 0.01 | 0.00 | 63 | 1006.9 |
| 20260905153857 | 86 | 185 | 1.0 | 3.0 | 0.00 | 0.01 | 0.00 | 62 | 1006.9 |
| 20260905153339 | 86 | 205 | 1.0 | 3.0 | 0.00 | 0.01 | 0.00 | 61 | 1006.8 |
| 20260905152843 | 86 | 225 | 2.0 | 3.0 | 0.00 | 0.01 | 0.00 | 62 | 1006.8 |
| 20260905152400 | 86 | 175 | 1.0 | 8.0 | 0.00 | 0.01 | 0.00 | 63 | 1006.8 |
| 20260905151903 | 85 | 196 | 3.0 | 8.0 | 0.00 | 0.01 | 0.00 | 63 | 1006.9 |
| 20260905151326 | 85 | 202 | 3.0 | 4.0 | 0.00 | 0.01 | 0.00 | 63 | 1007.0 |
| 20260905150850 | 85 | 180 | 2.0 | 9.0 | 0.00 | 0.01 | 0.00 | 62 | 1007.0 |
| 20260905150353 | 84 | 120 | 5.0 | 9.0 | 0.00 | 0.01 | 0.00 | 61 | 1007.0 |
| 20260905145856 | 84 | 197 | 1.0 | 8.0 | 0.00 | 0.01 | 0.00 | 65 | 1006.9 |
| 20260905145352 | 84 | 163 | 3.0 | 8.0 | 0.00 | 0.01 | 0.00 | 64 | 1007.1 |
| 20260905144836 | 83 | 165 | 5.0 | 8.0 | 0.00 | 0.01 | 0.00 | 64 | 1007.1 |
| 20260905144324 | 83 | 187 | 3.0 | 8.0 | 0.00 | 0.01 | 0.00 | 65 | 1007.1 |
| 20260905143829 | 82 | 184 | 4.0 | 8.0 | 0.00 | 0.01 | 0.00 | 65 | 1007.2 |
| 20260905143332 | 82 | 185 | 2.0 | 11.0 | 0.00 | 0.01 | 0.00 | 68 | 1007.3 |
| 20260905142857 | 82 | 185 | 4.0 | 11.0 | 0.00 | 0.01 | 0.00 | 67 | 1007.2 |
| 20260905142334 | 82 | 186 | 3.0 | 8.0 | 0.00 | 0.01 | 0.00 | 68 | 1007.2 |
| 20260905141845 | 81 | 167 | 2.0 | 10.0 | 0.00 | 0.01 | 0.00 | 68 | 1007.4 |
| 20260905141335 | 80 | 160 | 5.0 | 10.0 | 0.00 | 0.01 | 0.00 | 67 | 1007.5 |
| 20260905140857 | 80 | 154 | 3.0 | 8.0 | 0.00 | 0.01 | 0.00 | 70 | 1007.5 |
| 20260905140333 | 79 | 198 | 4.0 | 8.0 | 0.00 | 0.01 | 0.00 | 70 | 1007.4 |
| 20260905135852 | 79 | 142 | 1.0 | 8.0 | 0.00 | 0.01 | 0.00 | 74 | 1007.5 |
| 20260905135354 | 78 | 157 | 4.0 | 10.0 | 0.00 | 0.01 | 0.00 | 70 | 1007.5 |